Tracking 32412 objects as of 6-Dec-2025
HD Live streaming from Space Station
objects crossing your sky now

STARLINK-30853

Track STARLINK-30853 now!
10-day predictions
STARLINK-30853 is classified as:


NORAD ID: 58236
Int'l Code: 2023-171G
Perigee: 565.0 km
Apogee: 567.4 km
Inclination: 43.0 °
Period: 95.8 minutes
Semi major axis: 6937 km
RCS: Unknown
Launch date: November 8, 2023
Source: United States (US)
Launch site: AIR FORCE EASTERN TEST RANGE (AFETR)
Your satellite tracking list
Your tracking list is empty




NASA's NSSDC Master Catalog

Two Line Element Set (TLE):
1 58236U 23171G   25340.29678516  .00002494  00000-0  19958-3 0  9990
2 58236  43.0039  73.7340 0001696 272.7180  87.3469 15.02550339115678
Source of the keplerian elements: AFSPC